, NV

(GMT )
Eureka Airport

Weather History for K05U - April, 2013

Change the Weather History Date:

Thursday, April 25, 2013

  Actual Average Record
Temperature  
Mean Temperature 44 °F -  
Max Temperature 66 °F - - ()
Min Temperature 23 °F - - ()
Degree Days  
Heating Degree Days 20    
Moisture  
Dew Point 8 °F    
Average Humidity 27    
Maximum Humidity 54    
Minimum Humidity 8    
Precipitation  
Precipitation 0.00 in - - ()
Sea Level Pressure  
Sea Level Pressure 30.10 in    
Wind  
Wind Speed 5 mph (North)    
Max Wind Speed 15 mph    
Max Gust Speed 22 mph    
Visibility 10 miles    
Events      
Averages and records for this station are not official NWS values.
T = Trace of Precipitation, MM = Missing Value Source: NWS Daily Summary

Daily Weather History Graph

Daily Weather History Graph

Search for Another Location

Airport or City:

Trip Planner

Search our weather history database for the weather conditions in past years. The results will help you decide how hot, cold, wet, or windy it might be!

Date:

Astronomy

Apr. 25, 2013 Rise Set
Actual Time 5:52 AM PDT 7:32 PM PDT
Civil Twilight 5:23 AM PDT 8:01 PM PDT
Nautical Twilight 4:48 AM PDT 8:35 PM PDT
Astronomical Twilight 4:12 AM PDT 9:12 PM PDT
Moon 7:50 PM PDT (4/25) 5:38 AM PDT (4/25)
Length of Visible Light 14h 37m
Length of Day
13h 40m
Full, 100% of the Moon is Illuminated
Apr 25
Full
Apr 25
Full
May 2
Last Quarter
May 9
New
May 17
First Quarter

Hourly Weather History & Observations

Time (PDT) Temp. Windchill Dew Point Humidity Pressure Visibility Wind Dir Wind Speed Gust Speed Precip Events Conditions
12:10 AM 32.0 °F - 10.4 °F 41% 30.12 in 10.0 mi Calm Calm - N/A   Clear
12:30 AM 32.0 °F - 8.6 °F 38% 30.12 in 10.0 mi Calm Calm - N/A   Clear
12:50 AM 26.6 °F - 6.8 °F 43% 30.12 in 10.0 mi Calm Calm - N/A   Clear
1:10 AM 28.4 °F 22.2 °F 8.6 °F 43% 30.12 in 10.0 mi SSW 5.8 mph - N/A   Clear
1:30 AM 28.4 °F 24.6 °F 8.6 °F 43% 30.11 in 10.0 mi South 3.5 mph - N/A   Clear
1:50 AM 28.4 °F 20.4 °F 8.6 °F 43% 30.10 in 10.0 mi South 8.1 mph - N/A   Clear
2:10 AM 28.4 °F 22.2 °F 8.6 °F 43% 30.10 in 10.0 mi South 5.8 mph - N/A   Clear
2:30 AM 26.6 °F 22.6 °F 8.6 °F 47% 30.09 in 10.0 mi SW 3.5 mph - N/A   Clear
2:50 AM 26.6 °F 19.1 °F 10.4 °F 51% 30.09 in 10.0 mi SSW 6.9 mph - N/A   Clear
3:10 AM 26.6 °F 20.0 °F 10.4 °F 51% 30.09 in 10.0 mi SSW 5.8 mph - N/A   Clear
3:30 AM 26.6 °F 19.1 °F 10.4 °F 51% 30.09 in 10.0 mi South 6.9 mph - N/A   Clear
3:50 AM 24.8 °F 20.5 °F 8.6 °F 50% 30.09 in 10.0 mi South 3.5 mph - N/A   Clear
4:10 AM 23.0 °F 15.8 °F 8.6 °F 54% 30.09 in 10.0 mi South 5.8 mph - N/A   Clear
4:30 AM 23.0 °F 17.0 °F 8.6 °F 54% 30.09 in 10.0 mi SSW 4.6 mph - N/A   Clear
4:50 AM 23.0 °F 14.7 °F 8.6 °F 54% 30.09 in 10.0 mi South 6.9 mph - N/A   Clear
5:10 AM 24.8 °F 16.9 °F 10.4 °F 54% 30.09 in 10.0 mi SSW 6.9 mph - N/A   Clear
5:30 AM 24.8 °F 19.1 °F 8.6 °F 50% 30.09 in 10.0 mi South 4.6 mph - N/A   Clear
5:50 AM 23.0 °F - 8.6 °F 54% 30.09 in 10.0 mi Calm Calm - N/A   Clear
6:10 AM 24.8 °F 20.5 °F 10.4 °F 54% 30.09 in 10.0 mi South 3.5 mph - N/A   Clear
6:30 AM 26.6 °F 22.6 °F 10.4 °F 51% 30.10 in 10.0 mi South 3.5 mph - N/A   Clear
6:50 AM 30.2 °F 25.4 °F 12.2 °F 47% 30.10 in 10.0 mi South 4.6 mph - N/A   Clear
7:10 AM 35.6 °F - 12.2 °F 38% 30.10 in 10.0 mi Calm Calm - N/A   Clear
7:30 AM 39.2 °F - 10.4 °F 31% 30.11 in 10.0 mi Calm Calm - N/A   Clear
7:50 AM 42.8 °F - 6.8 °F 23% 30.11 in 10.0 mi Calm Calm - N/A   Clear
8:10 AM 44.6 °F 41.4 °F 8.6 °F 23% 30.11 in 10.0 mi North 5.8 mph - N/A   Clear
8:50 AM 48.2 °F - 10.4 °F 22% 30.12 in 10.0 mi North 5.8 mph - N/A   Clear
9:50 AM 53.6 °F - 10.4 °F 18% 30.12 in 10.0 mi North 4.6 mph - N/A   Clear
10:10 AM 55.4 °F - 10.4 °F 17% 30.11 in 10.0 mi Calm Calm - N/A   Clear
10:30 AM 57.2 °F - 10.4 °F 16% 30.11 in 10.0 mi North 5.8 mph - N/A   Clear
10:50 AM 57.2 °F - 8.6 °F 14% 30.10 in 10.0 mi Calm Calm - N/A   Clear
11:10 AM 59.0 °F - 8.6 °F 14% 30.10 in 10.0 mi Calm Calm - N/A   Clear
11:30 AM 59.0 °F - 8.6 °F 14% 30.10 in 10.0 mi North 4.6 mph - N/A   Clear
11:50 AM 59.0 °F - 8.6 °F 14% 30.09 in 10.0 mi NE 5.8 mph - N/A   Clear
12:10 PM 60.8 °F - 10.4 °F 14% 30.08 in 10.0 mi East 5.8 mph - N/A   Clear
12:30 PM 60.8 °F - 8.6 °F 13% 30.07 in 10.0 mi South 3.5 mph - N/A   Clear
12:50 PM 62.6 °F - 8.6 °F 12% 30.07 in 10.0 mi East 6.9 mph - N/A   Clear
1:10 PM 62.6 °F - 8.6 °F 12% 30.07 in 10.0 mi ENE 9.2 mph 16.1 mph N/A   Clear
1:30 PM 64.4 °F - 10.4 °F 12% 30.07 in 10.0 mi NNW 10.4 mph 17.3 mph N/A   Clear
1:50 PM 64.4 °F - 10.4 °F 12% 30.06 in 10.0 mi North 12.7 mph 17.3 mph N/A   Clear
2:10 PM 66.2 °F - 10.4 °F 11% 30.06 in 10.0 mi North 11.5 mph 18.4 mph N/A   Clear
2:30 PM 66.2 °F - 8.6 °F 11% 30.06 in 10.0 mi North 13.8 mph 19.6 mph N/A   Clear
2:50 PM 64.4 °F - 6.8 °F 10% 30.06 in 10.0 mi NNE 13.8 mph - N/A   Clear
3:10 PM 66.2 °F - 6.8 °F 10% 30.06 in 10.0 mi NNE 12.7 mph 17.3 mph N/A   Clear
3:30 PM 66.2 °F - 6.8 °F 10% 30.05 in 10.0 mi ENE 6.9 mph - N/A   Clear
3:50 PM 66.2 °F - 6.8 °F 10% 30.05 in 10.0 mi North 15.0 mph 18.4 mph N/A   Clear
4:10 PM 66.2 °F - 5.0 °F 9% 30.05 in 10.0 mi NNE 12.7 mph 19.6 mph N/A   Clear
4:30 PM 66.2 °F - 1.4 °F 8% 30.05 in 10.0 mi North 13.8 mph 20.7 mph N/A   Clear
4:50 PM 66.2 °F - 3.2 °F 8% 30.06 in 10.0 mi North 13.8 mph 20.7 mph N/A   Clear
5:10 PM 64.4 °F - 1.4 °F 8% 30.07 in 10.0 mi North 15.0 mph 21.9 mph N/A   Clear
5:30 PM 64.4 °F - 1.4 °F 8% 30.07 in 10.0 mi NNE 13.8 mph - N/A   Clear
5:50 PM 64.4 °F - 1.4 °F 8% 30.08 in 10.0 mi North 15.0 mph - N/A   Clear
6:10 PM 62.6 °F - 3.2 °F 9% 30.08 in 10.0 mi North 13.8 mph - N/A   Clear
6:30 PM 60.8 °F - 3.2 °F 10% 30.08 in 10.0 mi North 10.4 mph - N/A   Clear
6:50 PM 59.0 °F - 6.8 °F 13% 30.09 in 10.0 mi North 9.2 mph - N/A   Clear
7:10 PM 55.4 °F - 6.8 °F 14% 30.09 in 10.0 mi North 9.2 mph - N/A   Clear
7:30 PM 50.0 °F - 8.6 °F 19% 30.10 in 10.0 mi North 8.1 mph - N/A   Clear
7:50 PM 48.2 °F - 5.0 °F 17% 30.11 in 10.0 mi NNW 6.9 mph - N/A   Clear
8:10 PM 46.4 °F 42.9 °F 3.2 °F 17% 30.12 in 10.0 mi NNW 6.9 mph - N/A   Clear
8:30 PM 44.6 °F 43.1 °F 3.2 °F 18% 30.14 in 10.0 mi NNW 3.5 mph - N/A   Clear
8:50 PM 44.6 °F - 5.0 °F 20% 30.15 in 10.0 mi Calm Calm - N/A   Clear
9:10 PM 39.2 °F - 6.8 °F 26% 30.16 in 10.0 mi Calm Calm - N/A   Clear
9:30 PM 37.4 °F - 8.6 °F 30% 30.17 in 10.0 mi Calm Calm - N/A   Clear
9:50 PM 37.4 °F - 8.6 °F 30% 30.17 in 10.0 mi Calm Calm - N/A   Clear
10:10 PM 37.4 °F 33.8 °F 6.8 °F 28% 30.18 in 10.0 mi SSW 4.6 mph - N/A   Clear
10:30 PM 37.4 °F - 5.0 °F 26% 30.18 in 10.0 mi Calm Calm - N/A   Clear
10:50 PM 32.0 °F - 8.6 °F 38% 30.18 in 10.0 mi Calm Calm - N/A   Clear
11:10 PM 33.8 °F - 5.0 °F 30% 30.19 in 10.0 mi Calm Calm - N/A   Clear
11:30 PM 32.0 °F 27.5 °F 5.0 °F 32% 30.19 in 10.0 mi SW 4.6 mph - N/A   Clear
11:50 PM 32.0 °F - 5.0 °F 32% 30.19 in 10.0 mi Calm Calm - N/A   Clear